Home   Weather   Nampula   Past weeks

Flag for Mozambique Past Weather in Nampula, Mozambique — Yesterday and Last 2 Weeks

Now
79 °F

Passing clouds.


Feels Like: 82 °F
Forecast: 72 / 88 °F
Wind: 5 mph from Southeast

Location: Nampula Airport

Current Time: Jan 20, 2017 at 10:26:31 pm

Latest Report: Jan 20, 2017 at 9:00 pm


Visibility: N/A

Pressure: 29.92 "Hg

Humidity: 79%

Dew Point: 72 °F

Location of NampulaLocation

Past Weather in Nampula — Graph

°F

Nampula Temperature Yesterday

Maximum temperature yesterday: 91 °F (at 1:00 pm)
Minimum temperature yesterday: 77 °F (at 10:00 pm)
Average temperature yesterday: 84 °F

High & Low Weather Summary for the Past Weeks

 TemperatureHumidityPressure
High91 °F (Jan 14, 2:00 pm)100% (Jan 6, 5:00 am)29.98 "Hg (Jan 6, 5:00 am)
Low72 °F (Jan 9, 5:00 am)49% (Jan 20, 5:00 pm)29.71 "Hg (Jan 14, 4:00 pm)
Average81 °F78%29.87 "Hg
* Reported Jan 6 5:00 am — Jan 20 9:00 pm, Nampula, Weather by CustomWeather, © 2017

Note: Actual official high and low records may vary slightly from our data, if they occured in-between our weather recording intervals... More about our weather records

Advertising

Nampula Weather History for the Previous 24 Hours

Scroll right to see more
 ConditionsComfort  
Time TempWeatherWind HumidityBarometerVisibility
9:00 pm
Fri, Jan 20
79 °FPassing clouds.5 mph79%29.92 "HgN/A
7:00 pm81 °FPassing clouds.3 mph70%29.89 "HgN/A
6:00 pm82 °FThunderstorms. Passing clouds.7 mph66%29.86 "HgN/A
5:00 pm91 °FPartly sunny.6 mph49%29.86 "HgN/A
4:00 pm90 °FBroken clouds.7 mph52%29.83 "HgN/A
3:00 pm90 °FBroken clouds.9 mph52%29.83 "HgN/A
2:00 pm90 °FBroken clouds.9 mph52%29.86 "HgN/A
1:00 pm90 °FScattered clouds.9 mph52%29.92 "HgN/A
12:00 pm90 °FBroken clouds.9 mph52%29.92 "HgN/A
11:00 am86 °FBroken clouds.9 mph62%29.95 "HgN/A
10:00 am82 °FPartly sunny.9 mph70%29.95 "HgN/A
9:00 am79 °FSunny.7 mph79%29.95 "Hg10 mi
8:00 am77 °FSunny.8 mph79%29.95 "Hg10 mi
7:00 am75 °FPassing clouds.6 mph83%29.92 "HgN/A
6:00 am73 °FSunny.16 mph94%29.92 "Hg10 mi
5:00 am72 °FClear.6 mph100%29.89 "Hg10 mi
4:00 am73 °FPassing clouds.7 mph100%29.86 "HgN/A
3:00 am75 °FPassing clouds.7 mph94%29.89 "HgN/A
2:00 am75 °FPassing clouds.7 mph94%29.89 "HgN/A
12:00 am77 °FPassing clouds.N/A83%29.92 "HgN/A
11:00 pm
Thu, Jan 19
77 °FPassing clouds.10 mph83%29.95 "HgN/A
10:00 pm77 °FPassing clouds.7 mph83%29.95 "HgN/A
Weather by CustomWeather, © 2017

See weather overviewHow to use our weather pages